Location: El Manguito
(10.2358°N, 67.3634°W)
Time: 21:48:43
(UTC+00:00)

GPS 2-12 Rocket1 - Visible Passes

Search period start: 16 March 2026 00:00
Search period end: 26 March 2026 00:00
Orbit: 561 x 614 km, 20.0° (Epoch: 15 March)

Date Brightness Start Highest point End Pass type
(mag) Time Alt. Az. Time Alt. Az. Time Alt. Az.
16 Mar 5.1 08:35:48 21° SE 08:35:48 21° SE 08:37:31 10° SE visible
16 Mar 3.4 23:59:25 10° W 00:03:35 50° NNW 00:04:25 43° NNE visible
17 Mar 5.2 08:40:58 17° SSE 08:40:58 17° SSE 08:42:21 10° SE visible
18 Mar 3.8 00:04:55 10° W 00:08:53 36° NNW 00:09:31 34° N visible
18 Mar 5.4 08:46:07 13° SSE 08:46:07 13° SSE 08:46:52 10° SSE visible
19 Mar 4.2 00:10:29 10° WNW 00:14:15 29° N 00:14:35 28° N visible
20 Mar 4.5 00:16:05 10° WNW 00:19:37 24° N 00:19:37 24° N visible
21 Mar 4.8 00:21:38 10° NW 00:24:37 22° NNW 00:24:37 22° NNW visible
22 Mar 4.9 00:27:06 10° NW 00:29:35 20° NNW 00:29:35 20° NNW visible
23 Mar 5.1 00:32:26 10° NW 00:34:32 19° NNW 00:34:32 19° NNW visible
24 Mar 5.2 00:37:40 10° NW 00:39:27 19° NNW 00:39:27 19° NNW visible
24 Mar 4.7 22:59:58 10° NW 23:03:25 22° N 23:06:49 10° NE visible
25 Mar 5.2 00:42:47 10° NW 00:44:22 19° NW 00:44:22 19° NW visible
25 Mar 4.6 23:05:16 10° NW 23:08:48 23° N 23:12:17 10° ENE visible
